sat.trackr.live / text

‹ back to catalog

BIRKELAND

NORAD 55015 · 2023-001G

PAYLOAD ACTIVE UNKNOWN

§ Identity

Operator
Country
NOR
Launch date
2023-01-03
Launch site
AFETR
Launch vehicle
Mass (kg)
RCS (m²)

External: N2YO · Heavens-Above · Gunter

§ Orbital elements

Epoch: 2026-09-21T21:51:30.013056Z

Period
93.41 min
Inclination
97.3260°
Eccentricity
0.0007926
Mean motion
15.41554282 rev/d
Perigee alt
436.1 km
Apogee alt
446.9 km
Semi-major
6,819.7 km
B*
1.4329e-4
RAAN
333.1794°
Arg perigee
112.5996°
Mean anomaly
247.6090°
Rev number
20,724

§ Raw data

BIRKELAND1 55015U 23001G   26264.91076404  .00005937  00000+0  14329-3 0  99982 55015  97.3260 333.1794 0007926 112.5996 247.6090 15.41554282207242

JSON: /api/v1/satellites/55015 · /tle

For live sub-satellite position, see the globe view (requires WebGL).

§ Visibility from observer

Set your observer location to see the next 7 days of passes ≥ 10°. The values pass through the URL so the page stays shareable.

No JS? Fill the form by hand. The geolocation button needs JavaScript.

§ Radio — SatNOGS DB

ModeDescriptionDownlinkUplink
FM Mode U - TLM 401.500 MHz
BPSK S-band telemetry 2.207 GHz
BPSK Wideband data (512000) 2.207 GHz

3 transmitters · refreshed weekly from db.satnogs.org